Location: Austin
(30.3000°N, 97.7500°W)
Time: 02:57:23
(UTC-05:00)

Resurs 01 Rocket - Pass Details

Date: 18 March 2023
Orbit: 632 x 643 km, 97.9° (Epoch: 01 April)

Event Time Altitude Azimuth Distance (km) Brightness Sun altitude
Exits shadow 22:16:44 15° 342° (NNW) 1,697 4.1 -33.7°
Drops below altitude 10° 22:17:34 10° 344° (NNW) 2,031 4.6 -33.8°
Sets 22:19:47 0° 346° (NNW) 2,941 5.5 -34.3°
